Terminal Aerodrome Forecast
Issued by NWS

Home | Current Version | Previous Version | Text Only | Print | Product List | Glossary On
Versions: 1 2 3 4 5 6 7 8 9 10 11 12 13 14 15 16 17 18 19 20 21 22 23 24 25 26 27 28 29 30 31
000
FTUS44 KLIX 241700
TAFHDC
TAF
KHDC 241728Z 2418/2518 19007KT P6SM SCT030 SCT250
     FM250200 19009KT P6SM BKN050
     FM250800 22005KT P6SM BKN003
      TEMPO 2510/2514 BKN002
     FM251500 32004KT P6SM BKN015=

USA.gov is the U.S. government's official web portal to all federal, state and local government web resources and services.